Astoria, OR

10:10 PM PST on November 21, 2019 (GMT -0800)
Astoria Regional

Weather History for KAST - October, 2019

Change the Weather History Date:

Monday, October 21, 2019

  Actual Average Record
Temperature  
Mean Temperature 56 °F 52 °F  
Max Temperature 58 °F 60 °F 75 °F (1998)
Min Temperature 54 °F 44 °F 33 °F (1957)
Degree Days  
Heating Degree Days 9 13  
Month to date heating degree days 282 241  
Since 1 July heating degree days 575 722  
Cooling Degree Days 0 0  
Month to date cooling degree days 0 0  
Year to date cooling degree days 23 12  
Growing Degree Days 6 (Base 50)    
Moisture  
Dew Point 55 °F    
Average Humidity 90    
Maximum Humidity 93    
Minimum Humidity 86    
Precipitation  
Precipitation 0.08 in 0.22 in 3.79 in (2017)
Month to date precipitation 5.74 3.45  
Year to date precipitation 37.54 43.69  
Sea Level Pressure  
Sea Level Pressure 30.19 in    
Wind  
Wind Speed 10 mph (SSW)    
Max Wind Speed 25 mph    
Max Gust Speed 39 mph    
Visibility 4 miles    
Events Rain    
T = Trace of Precipitation, MM = Missing Value Source: NWS Daily Summary

Daily Weather History Graph

Daily Weather History Graph

Search for Another Location

Airport or City:

Astronomy

Oct. 21, 2019 Rise Set
Actual Time 7:40 AM PDT 6:18 PM PDT
Civil Twilight 7:10 AM PDT 6:49 PM PDT
Nautical Twilight 6:35 AM PDT 7:24 PM PDT
Astronomical Twilight 6:00 AM PDT 7:58 PM PDT
Moon No Moon Rise 3:14 PM PDT (10/21)
Length of Visible Light 11h 39m
Length of Day
10h 38m
Waning Gibbous, 47% of the Moon is Illuminated
Oct 21
Waning Gibbous
Oct 27
New
Nov 4
First Quarter
Nov 12
Full
Nov 19
Last Quarter

Hourly Weather History & Observations

Time (PDT) Temp. Dew Point Humidity Pressure Visibility Wind Dir Wind Speed Gust Speed Precip Events Conditions
12:55 AM 54.0 °F 51.1 °F 90% 30.15 in 8.0 mi South 5.8 mph - N/A   Mostly Cloudy
1:55 AM 55.0 °F 51.1 °F 86% 30.16 in 9.0 mi South 6.9 mph - N/A   Overcast
2:55 AM 55.0 °F 51.1 °F 86% 30.18 in 9.0 mi SSW 3.5 mph - N/A   Overcast
3:55 AM 55.0 °F 52.0 °F 89% 30.17 in 8.0 mi South 4.6 mph - 0.00 in   Mostly Cloudy
4:17 AM 55.0 °F 52.0 °F 89% 30.17 in 6.0 mi Variable 3.5 mph - 0.00 in Rain Light Rain
4:32 AM 55.0 °F 53.1 °F 93% 30.18 in 7.0 mi SW 4.6 mph - 0.01 in Rain Light Rain
4:39 AM 55.0 °F 53.1 °F 93% 30.19 in 7.0 mi SW 4.6 mph - 0.01 in   Overcast
4:46 AM 55.0 °F 53.1 °F 93% 30.18 in 6.0 mi SSW 3.5 mph - 0.01 in   Overcast
4:55 AM 55.0 °F 53.1 °F 93% 30.19 in 6.0 mi SW 6.9 mph - 0.01 in   Overcast
5:55 AM 55.0 °F 53.1 °F 93% 30.19 in 8.0 mi SSW 4.6 mph - N/A   Overcast
6:20 AM 55.0 °F 53.1 °F 93% 30.19 in 8.0 mi SSW 6.9 mph - N/A   Overcast
6:35 AM 55.9 °F 53.1 °F 90% 30.19 in 8.0 mi South 8.1 mph - N/A   Overcast
6:55 AM 55.9 °F 53.1 °F 90% 30.18 in 8.0 mi South 9.2 mph - N/A   Overcast
7:55 AM 55.9 °F 53.1 °F 90% 30.19 in 8.0 mi SSW 9.2 mph - N/A   Overcast
8:55 AM 57.0 °F 54.0 °F 89% 30.20 in 6.0 mi SSW 11.5 mph 18.4 mph 0.00 in Rain Light Rain
9:08 AM 57.0 °F 55.0 °F 93% 30.20 in 7.0 mi SSW 10.4 mph - 0.00 in Rain Light Rain
9:55 AM 57.0 °F 55.0 °F 93% 30.20 in 8.0 mi SSW 10.4 mph - 0.01 in   Overcast
10:11 AM 57.0 °F 55.0 °F 93% 30.21 in 7.0 mi SSW 13.8 mph 21.9 mph 0.00 in   Overcast
10:55 AM 57.0 °F 55.0 °F 93% 30.20 in 6.0 mi South 17.3 mph 25.3 mph 0.01 in Rain Light Rain
11:05 AM 57.0 °F 54.0 °F 89% 30.20 in 4.0 mi SSW 15.0 mph 26.5 mph 0.00 in Rain Light Rain
11:19 AM 57.0 °F 54.0 °F 89% 30.19 in 7.0 mi SSW 15.0 mph 27.6 mph 0.00 in   Overcast
11:55 AM 57.0 °F 54.0 °F 89% 30.19 in 4.0 mi SSW 18.4 mph 33.4 mph 0.00 in   Overcast
11:59 AM 57.0 °F 55.0 °F 93% 30.18 in 6.0 mi SSW 19.6 mph 33.4 mph N/A   Overcast
12:39 PM 57.0 °F 55.0 °F 93% 30.19 in 2.0 mi SSW 19.6 mph 33.4 mph 0.00 in Rain Light Rain
12:55 PM 55.9 °F 55.0 °F 97% 30.20 in 1.2 mi SSW 15.0 mph 31.1 mph 0.00 in Rain Light Rain
1:10 PM 57.0 °F 55.0 °F 93% 30.19 in 1.8 mi SSW 17.3 mph 34.5 mph 0.02 in Rain Light Rain
1:33 PM 57.0 °F 55.0 °F 93% 30.19 in 2.5 mi SSW 19.6 mph 33.4 mph 0.02 in   Overcast
1:55 PM 57.0 °F 55.0 °F 93% 30.19 in 3.0 mi SSW 17.3 mph 33.4 mph 0.02 in   Overcast
2:04 PM 57.0 °F 55.0 °F 93% 30.19 in 2.0 mi SSW 21.9 mph 36.8 mph N/A   Overcast
2:11 PM 57.2 °F 55.4 °F 94% 30.19 in 1.5 mi SSW 19.6 mph 33.4 mph N/A Rain Light Rain
2:55 PM 57.0 °F 55.0 °F 93% 30.19 in 1.2 mi SSW 20.7 mph 34.5 mph 0.01 in Rain Light Rain
3:55 PM 57.0 °F 55.9 °F 96% 30.19 in 1.8 mi SSW 16.1 mph 27.6 mph 0.01 in Rain Light Rain
4:03 PM 57.0 °F 55.9 °F 96% 30.19 in 2.5 mi SSW 20.7 mph 33.4 mph 0.00 in Rain Light Rain
4:15 PM 57.9 °F 55.9 °F 93% 30.19 in 1.8 mi SSW 18.4 mph 29.9 mph 0.00 in Rain Light Rain
4:26 PM 57.9 °F 55.9 °F 93% 30.19 in 2.0 mi SSW 20.7 mph 31.1 mph 0.00 in Rain Light Rain
4:55 PM 57.9 °F 55.9 °F 93% 30.20 in 2.0 mi SSW 19.6 mph 31.1 mph 0.00 in   Overcast
5:07 PM 57.9 °F 55.9 °F 93% 30.20 in 1.8 mi SSW 21.9 mph 35.7 mph N/A   Overcast
5:16 PM 57.9 °F 55.9 °F 93% 30.20 in 2.5 mi SSW 18.4 mph 33.4 mph 0.01 in   Overcast
6:22 PM 57.9 °F 55.9 °F 93% 30.19 in 2.5 mi SSW 19.6 mph 32.2 mph 0.00 in Rain Light Rain
6:45 PM 57.9 °F 57.0 °F 97% 30.20 in 3.0 mi SSW 16.1 mph 35.7 mph 0.00 in   Overcast
6:55 PM 57.9 °F 55.9 °F 93% 30.20 in 3.0 mi SSW 18.4 mph 36.8 mph 0.00 in   Overcast
7:18 PM 57.9 °F 55.9 °F 93% 30.21 in 2.5 mi SSW 16.1 mph 27.6 mph 0.00 in Rain Light Rain
7:27 PM 57.2 °F 55.4 °F 94% 30.20 in 3.0 mi SSW 18.4 mph 33.4 mph N/A Rain Light Rain
7:37 PM 57.9 °F 55.9 °F 93% 30.20 in 4.0 mi SSW 17.3 mph 27.6 mph 0.01 in Rain Light Rain
7:55 PM 57.9 °F 55.9 °F 93% 30.21 in 4.0 mi SSW 17.3 mph 26.5 mph 0.01 in   Overcast
8:30 PM 57.9 °F 55.9 °F 93% 30.20 in 2.0 mi SSW 17.3 mph 25.3 mph 0.00 in Rain Light Rain
8:45 PM 57.9 °F 55.9 °F 93% 30.21 in 2.5 mi SSW 18.4 mph 27.6 mph 0.01 in Rain Light Rain
8:55 PM 57.9 °F 55.9 °F 93% 30.21 in 2.5 mi SSW 16.1 mph 29.9 mph 0.01 in Rain Light Rain
9:14 PM 57.9 °F 57.0 °F 97% 30.21 in 4.0 mi SSW 16.1 mph 25.3 mph 0.00 in Rain Light Rain
9:55 PM 57.9 °F 57.0 °F 97% 30.21 in 3.0 mi South 18.4 mph 31.1 mph 0.01 in   Overcast
10:05 PM 57.9 °F 57.0 °F 97% 30.21 in 2.0 mi South 16.1 mph 25.3 mph 0.00 in Rain Light Rain
10:15 PM 57.9 °F 57.0 °F 97% 30.20 in 2.0 mi South 19.6 mph 26.5 mph 0.00 in Rain Light Rain
10:55 PM 59.0 °F 57.0 °F 93% 30.20 in 4.0 mi SSW 16.1 mph 23.0 mph 0.00 in   Overcast
11:55 PM 59.0 °F 57.0 °F 93% 30.22 in 3.0 mi SSW 18.4 mph 28.8 mph 0.13 in Rain Rain